Вернуться в каталог

FENGYUN 1C DEB

АктивенPO
NORAD 30018·DEBRIS·🇨🇳 China

Запущен May 10, 1999 с Taiyuan Satellite Launch Center

Loading…

Ближайшие Пролёты (ближайшие 24 часа)

TLE

СвежийSource: Space-Track

Эпоха: Sep 14, 2026, 06:08 UTC

1 30018U 99025MT  26257.25610339  .00002290  00000-0  31223-3 0  9995
2 30018  98.7556   6.8924 0112737  50.4583 340.4757 14.75497758 44970

Отслеживайте FENGYUN 1C DEB в реальном времени с AllMySat

Download on the App Store